GW6581 Weather Reports


time (UTC)temp
C
wind
direction
speed
KPH
gust
KPH
rain 1hr
cm
rain 24hr
cm
rain mn
cm
humidity
%
barometer
mb
20260510091542 18 131 4.8 8.0 0.00 0.00 0.00 72 1014.0
20260510091043 18 166 4.8 16.1 0.00 0.00 0.00 72 1014.0
20260510090543 18 100 16.1 17.7 0.00 0.00 0.00 71 1014.0
20260510090043 18 123 4.8 14.5 0.00 0.00 0.00 72 1014.0
20260510085543 18 151 9.7 9.7 0.00 0.00 0.00 73 1014.0
20260510085042 18 124 8.0 9.7 0.00 0.00 0.00 75 1014.0
20260510084542 18 122 8.0 11.3 0.00 0.00 0.00 74 1014.0
20260510084042 18 120 4.8 9.7 0.00 0.00 0.00 78 1014.0
20260510083542 17 142 8.0 8.0 0.00 0.00 0.00 78 1014.0
20260510083042 17 140 4.8 8.0 0.00 0.00 0.00 78 1014.0
20260510082543 17 105 12.9 12.9 0.00 0.00 0.00 79 1014.0
20260510082043 17 97 3.2 11.3 0.00 0.00 0.00 80 1014.0
20260510081543 17 148 8.0 11.3 0.00 0.00 0.00 80 1014.0
20260510081042 17 127 3.2 11.3 0.00 0.00 0.00 80 1014.0
20260510080542 17 78 4.8 11.3 0.00 0.00 0.00 81 1014.0
20260510080042 16 101 4.8 6.4 0.00 0.00 0.00 82 1014.0
20260510075542 16 96 12.9 16.1 0.00 0.00 0.00 81 1014.0
20260510075047 16 140 9.7 12.9 0.00 0.00 0.00 82 1014.0
20260510074543 16 177 9.7 12.9 0.00 0.00 0.00 82 1014.0
20260510074043 16 207 8.0 8.0 0.00 0.00 0.00 81 1014.0
20260510073543 16 134 6.4 8.0 0.00 0.00 0.00 82 1014.0
20260510073042 16 108 6.4 11.3 0.00 0.00 0.00 82 1014.0
20260510072543 16 62 8.0 8.0 0.00 0.00 0.00 82 1014.0
20260510072042 16 150 6.4 9.7 0.00 0.00 0.00 82 1014.0
20260510071543 16 218 3.2 12.9 0.00 0.00 0.00 82 1014.0
20260510071042 16 200 4.8 9.7 0.00 0.00 0.00 81 1014.0
20260510070543 16 191 4.8 6.4 0.00 0.00 0.00 81 1014.0
20260510070042 16 175 4.8 8.0 0.00 0.00 0.00 81 1014.0
20260510065542 16 126 3.2 8.0 0.00 0.00 0.00 81 1014.0
20260510065042 16 160 8.0 8.0 0.00 0.00 0.00 81 1014.0
20260510064542 16 214 3.2 4.8 0.00 0.00 0.00 82 1014.0
20260510064043 16 134 0.0 3.2 0.00 0.00 0.00 83 1014.0
20260510063542 16 330 0.0 0.0 0.00 0.00 0.00 84 1014.0
20260510063043 15 166 1.6 1.6 0.00 0.00 0.00 85 1014.0
20260510062542 15 208 0.0 1.6 0.00 0.00 0.00 86 1014.0
20260510062042 15 173 0.0 0.0 0.00 0.00 0.00 86 1014.0
20260510061546 15 137 0.0 3.2 0.00 0.00 0.00 87 1014.0
20260510061042 15 209 3.2 4.8 0.00 0.00 0.00 87 1014.0
20260510060542 15 217 3.2 3.2 0.00 0.00 0.00 87 1014.0
20260510060042 14 189 1.6 3.2 0.00 0.00 0.00 87 1014.0
20260510055542 14 203 0.0 3.2 0.00 0.00 0.00 88 1014.0
20260510055043 14 218 1.6 3.2 0.00 0.00 0.00 88 1014.0
20260510054543 14 176 4.8 4.8 0.00 0.00 0.00 88 1014.0
20260510054043 14 194 0.0 4.8 0.00 0.00 0.00 88 1014.0
20260510053542 14 190 1.6 3.2 0.00 0.00 0.00 88 1014.0
20260510053042 14 322 0.0 3.2 0.00 0.00 0.00 88 1014.0
20260510052543 14 177 0.0 3.2 0.00 0.00 0.00 88 1014.0
20260510052042 14 238 3.2 3.2 0.00 0.00 0.00 88 1014.0
20260510051542 14 215 1.6 3.2 0.00 0.00 0.00 88 1014.0
20260510051042 14 219 0.0 1.6 0.00 0.00 0.00 88 1014.0
20260510050543 14 173 0.0 3.2 0.00 0.00 0.00 88 1014.0
20260510050042 14 159 0.0 3.2 0.00 0.00 0.00 88 1014.0
20260510045542 14 183 1.6 3.2 0.00 0.00 0.00 88 1014.0
20260510045045 14 143 0.0 3.2 0.00 0.00 0.00 88 1014.0
20260510044542 14 178 0.0 1.6 0.00 0.00 0.00 88 1014.0
20260510044043 13 181 0.0 3.2 0.00 0.00 0.00 88 1013.0
20260510043543 13 121 0.0 1.6 0.00 0.00 0.00 88 1014.0
20260510043042 14 90 0.0 1.6 0.00 0.00 0.00 88 1014.0
20260510042544 14 147 0.0 0.0 0.00 0.00 0.00 88 1014.0
20260510042043 14 173 0.0 0.0 0.00 0.00 0.00 87 1013.0
20260510041543 14 173 0.0 1.6 0.00 0.00 0.00 87 1014.0
20260510041043 14 173 0.0 3.2 0.00 0.00 0.00 87 1014.0
20260510040542 14 353 0.0 1.6 0.00 0.00 0.00 87 1014.0
20260510040042 14 7 0.0 4.8 0.00 0.00 0.00 88 1014.0
20260510035542 14 243 0.0 3.2 0.00 0.00 0.00 88 1014.0
20260510035043 14 305 0.0 4.8 0.00 0.00 0.00 88 1014.0
20260510034542 13 39 0.0 3.2 0.00 0.00 0.00 88 1014.0
20260510034042 13 218 3.2 3.2 0.00 0.00 0.00 88 1014.0
20260510033542 13 231 3.2 4.8 0.00 0.00 0.00 88 1014.0
20260510033042 13 195 3.2 4.8 0.00 0.00 0.00 88 1014.0
20260510032543 13 175 4.8 4.8 0.00 0.00 0.00 88 1014.0
20260510032042 14 181 1.6 4.8 0.00 0.00 0.00 88 1014.0
20260510031542 13 244 3.2 4.8 0.00 0.00 0.00 88 1014.0
20260510031042 13 209 0.0 1.6 0.00 0.00 0.00 88 1014.0
20260510030542 13 165 0.0 3.2 0.00 0.00 0.00 88 1014.0
20260510030043 13 263 1.6 4.8 0.00 0.00 0.00 88 1014.0
20260510025542 13 217 0.0 4.8 0.00 0.00 0.00 88 1014.0
20260510025043 13 227 3.2 4.8 0.00 0.00 0.00 88 1014.0
20260510024542 13 263 0.0 3.2 0.00 0.00 0.00 88 1014.0
20260510024044 13 227 3.2 4.8 0.00 0.00 0.00 88 1014.0
20260510023542 13 277 3.2 3.2 0.00 0.00 0.00 89 1014.0
20260510023042 13 240 1.6 3.2 0.00 0.00 0.00 89 1014.0
20260510022542 13 6 3.2 3.2 0.00 0.00 0.00 89 1014.0
20260510022042 13 287 0.0 1.6 0.00 0.00 0.00 89 1014.0
20260510021542 13 213 1.6 4.8 0.00 0.00 0.00 89 1014.0
20260510021042 13 201 4.8 4.8 0.00 0.00 0.00 89 1014.0
20260510020543 13 237 4.8 4.8 0.00 0.00 0.00 89 1014.0
20260510020042 13 274 0.0 1.6 0.00 0.00 0.00 89 1014.0
20260510015544 13 203 4.8 4.8 0.00 0.00 0.00 89 1014.0
20260510015042 13 260 3.2 4.8 0.00 0.00 0.00 89 1014.0
20260510014543 13 240 3.2 4.8 0.00 0.00 0.00 89 1014.0
20260510014042 13 194 1.6 4.8 0.00 0.00 0.00 89 1014.0
20260510013542 13 216 3.2 4.8 0.00 0.00 0.00 89 1014.0
20260510013042 13 222 3.2 4.8 0.00 0.00 0.00 90 1014.0
20260510012542 13 243 4.8 4.8 0.00 0.00 0.00 90 1014.0
20260510011542 12 243 3.2 8.0 0.00 0.00 0.00 91 1014.0
20260510011043 12 258 4.8 6.4 0.00 0.00 0.00 91 1014.0
20260510010542 12 257 3.2 4.8 0.00 0.00 0.00 91 1014.0
20260510010042 12 254 3.2 6.4 0.00 0.00 0.00 91 1015.0
20260510005542 12 232 4.8 8.0 0.00 0.00 0.00 91 1014.0
20260510005042 12 267 0.0 4.8 0.00 0.00 0.00 91 1014.0
20260510004542 12 310 1.6 8.0 0.00 0.00 0.00 91 1014.0
20260510004043 12 186 3.2 4.8 0.00 0.00 0.00 91 1014.0
20260510003542 12 170 3.2 6.4 0.00 0.00 0.00 91 1015.0
20260510003043 12 132 3.2 3.2 0.00 0.00 0.00 91 1014.0
20260510002542 13 182 1.6 4.8 0.00 0.00 0.00 90 1014.0
20260510002042 13 157 3.2 3.2 0.00 0.00 0.00 90 1014.0
20260510001543 13 224 3.2 4.8 0.00 0.00 0.00 91 1014.0
20260510001042 13 193 0.0 4.8 0.00 0.00 0.00 90 1014.0
20260510000543 13 224 3.2 6.4 0.00 0.00 0.00 90 1014.0
20260510000042 13 217 3.2 4.8 0.00 0.00 1.07 90 1015.0
20260509235542 13 224 3.2 4.8 0.00 0.00 1.07 90 1015.0
20260509235042 13 173 0.0 4.8 0.00 0.00 1.07 90 1015.0
20260509234543 13 235 3.2 4.8 0.00 0.00 1.07 90 1015.0
20260509234043 13 216 0.0 3.2 0.00 0.00 1.07 90 1014.0
20260509233542 13 233 0.0 1.6 0.00 0.00 1.07 90 1015.0
20260509233042 13 197 0.0 3.2 0.00 0.00 1.07 90 1015.0
20260509232542 13 172 1.6 3.2 0.00 0.00 1.07 89 1015.0
20260509232043 14 185 1.6 1.6 0.00 0.00 1.07 89 1015.0
20260509231543 14 188 1.6 3.2 0.00 0.00 1.07 89 1015.0
20260509231042 14 211 1.6 3.2 0.00 0.00 1.07 90 1015.0
20260509230542 14 230 0.0 1.6 0.00 0.00 1.07 90 1015.0
20260509230043 14 179 3.2 4.8 0.00 0.00 1.07 90 1015.0
20260509225542 14 203 0.0 3.2 0.00 0.00 1.07 90 1015.0
20260509225042 14 227 3.2 4.8 0.00 0.00 1.07 90 1015.0
20260509224542 14 218 0.0 3.2 0.00 0.00 1.07 90 1015.0
20260509224042 14 258 0.0 4.8 0.00 0.00 1.07 91 1015.0
20260509223542 14 250 3.2 3.2 0.00 0.00 1.07 91 1015.0
20260509223043 13 258 3.2 4.8 0.00 0.00 1.07 91 1015.0
20260509222542 13 231 3.2 8.0 0.00 0.00 1.07 91 1015.0
20260509222042 13 206 4.8 8.0 0.00 0.00 1.07 91 1015.0
20260509221543 13 194 4.8 4.8 0.00 0.00 1.07 91 1015.0
20260509221042 13 253 3.2 6.4 0.00 0.00 1.07 92 1015.0
20260509220542 13 215 4.8 6.4 0.00 0.00 1.07 92 1015.0
20260509220042 13 168 4.8 6.4 0.00 0.00 1.07 92 1015.0
20260509215542 13 250 0.0 3.2 0.00 0.00 1.07 92 1015.0
20260509215042 13 178 3.2 6.4 0.00 0.00 1.07 92 1015.0
20260509214543 13 212 4.8 4.8 0.00 0.00 1.07 92 1015.0
20260509214042 14 216 0.0 4.8 0.00 0.00 1.07 92 1015.0
20260509213542 14 182 3.2 3.2 0.00 0.00 1.07 92 1015.0
20260509213042 14 176 3.2 4.8 0.00 0.00 1.07 92 1015.0
20260509212542 13 183 3.2 4.8 0.00 0.00 1.07 92 1015.0
20260509212042 14 167 3.2 4.8 0.00 0.00 1.07 92 1015.0
20260509211543 14 150 3.2 4.8 0.00 0.00 1.07 92 1015.0
20260509211042 14 139 0.0 4.8 0.00 0.00 1.07 93 1015.0
20260509210543 14 171 4.8 4.8 0.00 0.00 1.07 93 1015.0
20260509210042 14 176 3.2 4.8 0.00 0.00 1.07 93 1015.0
20260509205543 14 166 3.2 6.4 0.00 0.00 1.07 93 1015.0
20260509205043 14 168 3.2 3.2 0.00 0.00 1.07 93 1015.0
20260509204542 14 273 1.6 1.6 0.00 0.00 1.07 93 1015.0
20260509204042 14 4 1.6 3.2 0.00 0.00 1.07 93 1015.0
20260509203542 14 177 0.0 4.8 0.00 0.00 1.07 93 1015.0
20260509203042 14 168 4.8 6.4 0.00 0.00 1.07 93 1015.0
20260509202542 14 163 4.8 4.8 0.00 0.00 1.07 93 1015.0
20260509202042 14 150 3.2 6.4 0.00 0.00 1.07 93 1014.0
20260509201542 14 155 3.2 6.4 0.00 0.00 1.07 93 1014.0
20260509201043 14 148 0.0 4.8 0.00 0.00 1.07 93 1014.0
20260509200543 14 131 4.8 8.0 0.00 0.00 1.07 93 1014.0
20260509200042 14 159 3.2 6.4 0.00 0.00 1.07 92 1014.0
20260509195542 14 152 4.8 6.4 0.00 0.00 1.07 92 1014.0
20260509195042 14 158 3.2 4.8 0.00 0.00 1.07 92 1014.0
20260509194542 14 129 3.2 4.8 0.00 0.00 1.07 92 1014.0
20260509194042 14 154 4.8 4.8 0.00 0.00 1.07 92 1014.0
20260509193542 15 141 3.2 8.0 0.00 0.00 1.07 92 1014.0
20260509193042 15 181 3.2 6.4 0.00 0.00 1.07 91 1013.0
20260509192542 15 179 1.6 3.2 0.00 0.00 1.07 91 1013.0
20260509192042 15 139 4.8 6.4 0.00 0.00 1.07 91 1013.0
20260509191542 15 136 4.8 6.4 0.00 0.00 1.07 91 1013.0
20260509191042 15 70 0.0 6.4 0.00 0.00 1.07 90 1013.0
20260509190542 15 100 4.8 6.4 0.00 0.00 1.07 90 1013.0
20260509190043 15 128 3.2 8.0 0.00 0.00 1.07 89 1013.0
20260509185543 15 159 6.4 6.4 0.00 0.00 1.07 89 1013.0
20260509185043 15 128 4.8 8.0 0.00 0.00 1.07 88 1013.0
20260509184542 16 137 8.0 8.0 0.00 0.00 1.07 87 1013.0
20260509184042 16 131 4.8 8.0 0.00 0.00 1.07 85 1013.0
20260509183542 16 110 1.6 4.8 0.00 0.00 1.07 83 1013.0
20260509183042 16 73 3.2 4.8 0.00 0.00 1.07 82 1013.0
20260509182543 17 141 3.2 4.8 0.00 0.00 1.07 80 1012.0
20260509182042 16 125 1.6 1.6 0.00 0.00 1.07 83 1012.0
20260509181542 16 128 0.0 4.8 0.00 0.00 1.07 85 1013.0
20260509181042 16 146 4.8 6.4 0.00 0.00 1.07 85 1012.0
20260509180542 16 109 0.0 3.2 0.00 0.00 1.07 88 1012.0
20260509180042 15 30 1.6 3.2 0.00 0.00 1.07 89 1012.0
20260509175543 15 38 1.6 3.2 0.00 0.00 1.07 89 1012.0
20260509175042 15 92 1.6 1.6 0.00 0.00 1.07 89 1012.0
20260509174546 15 180 1.6 3.2 0.00 0.00 1.07 89 1012.0
20260509174042 15 173 0.0 4.8 0.00 0.00 1.07 90 1012.0
20260509173543 15 229 0.0 3.2 0.00 0.00 1.07 91 1012.0
20260509173043 15 184 4.8 4.8 0.00 0.00 1.07 91 1012.0
20260509172543 15 336 1.6 4.8 0.00 0.00 1.07 91 1012.0
20260509172042 15 173 0.0 3.2 0.00 0.00 1.07 92 1012.0
20260509171543 15 118 3.2 6.4 0.00 0.00 1.07 92 1012.0
20260509171042 15 57 3.2 3.2 0.00 0.00 1.07 92 1012.0
20260509170542 15 351 4.8 9.7 0.00 0.00 1.07 92 1012.0
20260509170042 15 345 4.8 8.0 0.00 0.00 1.07 93 1012.0
20260509165544 15 212 3.2 6.4 0.00 0.00 1.07 93 1012.0
20260509165043 15 318 3.2 9.7 0.00 0.00 1.07 93 1011.0
20260509164543 15 297 6.4 9.7 0.00 0.00 1.07 94 1012.0
20260509164042 15 8 4.8 9.7 0.00 0.00 1.07 94 1012.0
20260509163542 15 46 3.2 8.0 0.05 0.00 1.07 94 1012.0
20260509163042 15 54 8.0 8.0 0.05 0.00 1.07 94 1013.0
20260509162542 15 37 6.4 6.4 0.13 0.00 1.07 94 1013.0
20260509162043 15 51 1.6 4.8 0.05 0.00 1.04 94 1013.0
20260509161543 15 22 6.4 6.4 0.05 0.00 1.04 94 1013.0
20260509160555 15 132 3.2 8.0 0.05 0.00 1.02 94 1013.0
20260509160042 15 48 9.7 9.7 0.13 0.00 1.02 94 1013.0
20260509155542 15 17 4.8 4.8 0.18 0.00 0.99 94 1013.0
20260509155042 15 121 0.0 6.4 0.36 0.00 0.99 94 1013.0
20260509154542 15 187 0.0 9.7 0.36 0.00 0.97 93 1013.0
20260509154043 15 135 3.2 6.4 0.43 0.00 0.94 94 1014.0
20260509153542 15 6 4.8 9.7 0.53 0.00 0.89 93 1014.0
20260509153044 15 9 8.0 8.0 0.53 0.00 0.86 93 1014.0
20260509152542 15 11 4.8 8.0 0.53 0.00 0.81 93 1014.0
20260509152043 15 61 0.0 6.4 0.66 0.00 0.76 93 1014.0
20260509151543 15 302 0.0 3.2 0.97 0.00 0.69 93 1014.0
20260509151043 15 62 9.7 11.3 1.19 0.00 0.61 93 1014.0
20260509150543 15 41 8.0 8.0 1.02 0.00 0.51 92 1014.0
20260509150042 15 56 14.5 14.5 0.66 0.00 0.41 92 1014.0
20260509145543 15 122 3.2 14.5 0.66 0.00 0.33 91 1014.0
20260509145042 15 87 9.7 11.3 0.61 0.00 0.28 91 1014.0
20260509144542 16 92 12.9 16.1 0.48 0.00 0.20 90 1014.0
20260509144042 16 110 8.0 14.5 0.43 0.00 0.18 89 1014.0
20260509143543 16 103 12.9 17.7 0.23 0.00 0.13 88 1014.0
20260509143042 16 86 11.3 12.9 0.13 0.00 0.10 87 1014.0
20260509142543 16 120 14.5 14.5 0.05 0.00 0.08 85 1014.0
20260509142043 16 114 4.8 12.9 0.00 0.00 0.08 83 1013.0
20260509141542 16 87 6.4 8.0 0.00 0.00 0.08 81 1013.0
20260509141042 16 110 3.2 3.2 0.00 0.00 0.08 81 1013.0
20260509140542 16 92 4.8 8.0 0.00 0.00 0.08 81 1012.0
20260509140043 16 17 4.8 6.4 0.00 0.00 0.08 81 1012.0
20260509135543 16 277 3.2 6.4 0.00 0.00 0.08 81 1012.0
20260509135042 16 304 1.6 4.8 0.00 0.00 0.08 82 1012.0
20260509134544 16 128 4.8 4.8 0.00 0.00 0.08 82 1012.0
20260509134042 16 337 4.8 8.0 0.00 0.00 0.08 82 1012.0
20260509133543 16 332 8.0 8.0 0.05 0.00 0.08 82 1012.0
20260509133043 16 15 4.8 8.0 0.05 0.00 0.08 82 1012.0
20260509132542 16 346 4.8 14.5 0.05 0.00 0.05 81 1012.0
20260509132042 16 15 1.6 8.0 0.13 0.00 0.05 80 1013.0
20260509131542 16 74 4.8 6.4 0.13 0.00 0.05 79 1013.0
20260509131042 17 264 0.0 9.7 0.05 0.00 0.03 77 1013.0
20260509130543 17 28 3.2 8.0 0.00 0.00 0.03 76 1013.0
20260509130042 17 52 14.5 16.1 0.00 0.00 0.03 73 1014.0
20260509125543 17 46 3.2 6.4 0.00 0.00 0.03 72 1013.0
20260509125043 17 357 4.8 6.4 0.00 0.00 0.03 71 1014.0
20260509124542 17 77 0.0 6.4 0.00 0.00 0.03 71 1014.0
20260509124042 17 12 4.8 6.4 0.00 0.00 0.03 71 1014.0
20260509123542 17 349 1.6 3.2 0.00 0.00 0.03 72 1014.0
20260509123042 17 43 4.8 12.9 0.00 0.00 0.03 72 1014.0
20260509122542 17 28 6.4 8.0 0.00 0.00 0.03 72 1014.0
20260509122042 17 346 11.3 12.9 0.00 0.00 0.03 71 1014.0
20260509121543 17 87 3.2 6.4 0.00 0.00 0.03 71 1014.0
20260509121048 17 14 6.4 8.0 0.00 0.00 0.03 71 1014.0
20260509120542 17 357 4.8 11.3 0.00 0.00 0.03 71 1013.0
20260509120042 17 21 4.8 14.5 0.00 0.00 0.03 72 1014.0
20260509115543 17 330 9.7 16.1 0.00 0.00 0.03 72 1014.0
20260509115042 17 58 6.4 16.1 0.00 0.00 0.03 73 1014.0
20260509114542 17 29 16.1 19.3 0.00 0.00 0.03 72 1014.0
20260509114043 17 56 6.4 17.7 0.00 0.00 0.03 73 1014.0
20260509113542 17 54 9.7 16.1 0.00 0.00 0.03 74 1014.0
20260509113043 17 335 4.8 14.5 0.00 0.00 0.03 76 1014.0
20260509112542 17 49 6.4 14.5 0.00 0.00 0.03 77 1014.0
20260509112042 17 21 4.8 17.7 0.00 0.00 0.03 77 1014.0
20260509111543 17 97 4.8 9.7 0.00 0.00 0.03 77 1014.0
20260509111043 17 92 8.0 9.7 0.00 0.00 0.03 76 1014.0
20260509110542 17 307 3.2 12.9 0.00 0.00 0.03 76 1014.0
20260509110043 17 41 3.2 8.0 0.00 0.00 0.03 76 1014.0
20260509105542 17 61 4.8 12.9 0.00 0.00 0.03 76 1014.0
20260509105043 17 7 3.2 9.7 0.00 0.00 0.03 76 1014.0
20260509104542 17 33 12.9 14.5 0.00 0.00 0.03 76 1014.0
20260509104042 17 60 4.8 11.3 0.00 0.00 0.03 76 1014.0
20260509103542 17 3 3.2 4.8 0.00 0.00 0.03 76 1014.0
20260509103043 17 77 8.0 20.9 0.00 0.00 0.03 75 1014.0
20260509102543 17 53 14.5 22.5 0.00 0.00 0.03 75 1015.0
20260509102042 17 16 8.0 20.9 0.00 0.00 0.03 76 1015.0
20260509101542 17 65 17.7 20.9 0.00 0.00 0.03 77 1015.0
20260509101042 17 45 12.9 20.9 0.00 0.00 0.03 76 1015.0
20260509100542 17 53 14.5 19.3 0.00 0.00 0.03 76 1015.0
20260509100042 17 41 4.8 17.7 0.00 0.00 0.03 77 1015.0
20260509095542 17 55 17.7 22.5 0.00 0.00 0.03 76 1015.0
20260509095042 17 73 4.8 11.3 0.00 0.00 0.03 75 1014.0
20260509094542 18 70 4.8 8.0 0.00 0.00 0.03 74 1014.0
20260509094043 18 68 0.0 9.7 0.00 0.00 0.03 73 1014.0
20260509093542 18 92 3.2 8.0 0.00 0.00 0.03 73 1014.0
20260509093042 17 34 4.8 12.9 0.00 0.00 0.03 73 1015.0
20260509092543 18 69 11.3 14.5 0.00 0.00 0.03 73 1015.0
20260509092042 18 61 1.6 19.3 0.00 0.00 0.03 73 1014.0